[[{"header":{"parameterUnit":"m.s-1","parameterCategory":1,"la1":30.2991,"la2":30.254,"lo1":-89.0895,"lo2":-89.0444,"dy":0.0017,"dx":0.0017,"nx":28,"ny":28,"refTime":"2025-01-14T03:00:00:Z","depth":0,"parameterNumber":2,"parameterNumberName":"U-component_of_WINDS"},"data":[0,0,0,0,0,0,0,0,0,0,0,0,0,0,0,0,0,0,0,0,0,0,0,0,0,0,0,0,0,0,0,0,0,0,0,0,0,0,0,0,0,0,0,0,0,0,0,0,0,0,0,0,0,0,0,0,0,0,-2.5043,-2.5043,0,-2.505,-2.505,-2.505,-2.5,-2.4999,-2.4997,-2.4996,-2.5005,-2.5007,-2.5008,0,0,0,0,0,0,0,0,0,0,0,0,0,-2.4988,-2.499,-2.5043,-2.5043,-2.5043,-2.505,-2.505,-2.505,-2.5,-2.4999,-2.4997,-2.4995,-2.5005,-2.5007,-2.5009,0,0,0,0,0,0,0,0,0,0,0,0,0,-2.5005,-2.499,-2.5043,-2.5019,-2.5017,-2.505,-2.505,-2.505,-2.5001,-2.4999,-2.4997,-2.4995,-2.5004,-2.5007,-2.5009,-2.5065,0,0,-2.5016,-2.5017,0,0,0,0,0,0,0,0,-2.5005,-2.5007,-2.5022,-2.5021,-2.5018,-2.5022,-2.5034,-2.5055,-2.5001,-2.5007,-2.4996,-2.4994,-2.5013,-2.5014,-2.502,-2.5066,-2.5066,-2.5016,-2.5018,-2.5019,-2.5019,0,0,0,0,0,0,0,-2.5003,-2.5007,-2.5045,-2.5023,-2.502,-2.5009,-2.5009,-2.5038,-2.5022,-2.5006,-2.5003,-2.5004,-2.5011,-2.5018,-2.502,-2.5066,-2.5016,-2.5018,-2.502,-2.5021,-2.516,-2.5162,0,0,0,0,0,0,-2.5005,-2.5006,-2.5045,-2.5046,-2.5006,-2.5011,-2.5011,-2.5023,-2.5021,-2.5019,-2.5006,-2.5002,-2.5015,-2.5017,-2.502,-2.5087,-2.5019,-2.5021,-2.5022,-2.5158,-2.516,-2.5163,0,0,0,0,0,0,-2.5004,-2.5009,-2.5045,-2.5025,-2.5029,-2.5014,-2.5028,-2.5024,-2.5031,-2.5021,-2.5018,-2.5016,-2.5014,-2.5017,-2.5055,-2.5087,-2.5022,-2.5024,-2.5155,-2.5158,-2.5162,-2.5221,0,0,0,0,0,0,-2.5003,-2.5009,-2.503,-2.5026,-2.503,-2.5079,-2.503,-2.5026,-2.5035,-2.5029,-2.5029,-2.5027,-2.5012,-2.5051,-2.5057,-2.5089,-2.5026,-2.5152,-2.5156,-2.5161,-2.5216,-2.5226,-2.5235,0,0,0,0,0,-2.5001,-2.5046,-2.5031,-2.5036,-2.5055,-2.5081,-2.5083,-2.5064,-2.5038,-2.5059,-2.5052,-2.5027,-2.5082,-2.5056,-2.5062,-2.5095,-2.515,-2.5155,-2.516,-2.5212,-2.5224,-2.5235,0,0,0,0,0,0,-2.5055,-2.5045,-2.5028,-2.5074,-2.5078,-2.5072,-2.5098,-2.5077,-2.509,-2.5085,-2.5061,-2.5062,-2.5104,-2.5103,-2.5073,-2.515,-2.5112,-2.5118,-2.5149,-2.516,-2.517,-2.5169,-2.5028,0,0,0,0,0,-2.5072,-2.5093,-2.5083,-2.5124,-2.5128,-2.5113,-2.5123,-2.5108,-2.5112,-2.5114,-2.511,-2.5116,-2.5134,-2.5147,-2.5164,-2.5216,-2.5216,-2.5241,-2.5251,-2.5258,-2.5265,-2.5293,-2.5305,-2.518,-2.518,-2.518,0,0,-2.5108,-2.5105,-2.512,-2.5135,-2.5137,-2.516,-2.5115,-2.514,-2.5157,-2.5118,-2.5154,-2.5151,-2.5156,-2.5201,-2.5221,-2.5202,-2.5299,-2.5265,-2.5271,-2.5273,-2.53,-2.5312,-2.5322,-2.5183,-2.5183,-2.5182,0,0,-2.5185,-2.5184,-2.5219,-2.5222,-2.5225,-2.5215,-2.5223,-2.522,-2.5217,-2.5252,-2.5224,-2.5244,-2.5276,-2.5281,-2.5287,-2.5367,-2.5345,-2.5373,-2.5422,-2.545,-2.546,-2.5468,-2.5498,-2.5509,-2.5379,-2.5379,-2.5379,0,-2.5229,-2.5262,-2.524,-2.5267,-2.5276,-2.5241,-2.5276,-2.528,-2.5289,-2.5296,-2.5273,-2.5314,-2.5314,-2.5361,-2.538,-2.5387,-2.5396,-2.5373,-2.546,-2.5468,-2.5476,-2.5504,-2.5515,-2.5383,-2.5382,-2.5382,-2.5382,0,-2.5317,-2.534,-2.5367,-2.5376,-2.5387,-2.5419,-2.5403,-2.5417,-2.5401,-2.5393,-2.543,-2.543,-2.5446,-2.5456,-2.5441,-2.5501,-2.5489,-2.5464,-2.5425,-2.5492,-2.5518,-2.5528,-2.5388,-2.5386,-2.5385,-2.5385,0,0,-2.5428,-2.5425,-2.5435,-2.544,-2.5441,-2.5458,-2.5489,-2.5504,-2.5517,-2.5525,-2.555,-2.5578,-2.5555,-2.5563,-2.5548,-2.5573,-2.5638,-2.5545,-2.5545,-2.5563,-2.5705,-2.5725,-2.5738,-2.5622,-2.5624,-2.5626,-2.5705,0,-2.5504,-2.5555,-2.5537,-2.559,-2.5611,-2.5579,-2.5605,-2.5609,-2.5603,-2.5621,-2.5615,-2.5636,-2.5603,-2.5608,-2.563,-2.5625,-2.5666,-2.5619,-2.5647,-2.5649,-2.5648,-2.5751,-2.5772,-2.5847,-2.5715,-2.5717,-2.5718,0,-2.56,-2.5611,-2.5666,-2.5664,-2.5673,-2.5697,-2.571,-2.5727,-2.5732,-2.5726,-2.5734,-2.5715,-2.5745,-2.5706,-2.5748,-2.5717,-2.5727,-2.5727,-2.5729,-2.5732,-2.5688,-2.5758,-2.587,-2.5882,-2.5734,-2.5732,-2.5731,0,-2.5678,-2.5706,-2.5743,-2.5747,-2.5746,-2.5764,-2.5764,-2.5766,-2.5777,-2.5789,-2.5796,-2.5811,-2.5819,-2.5832,-2.5817,-2.579,-2.5863,-2.5822,-2.586,-2.586,-2.5877,-2.5877,-2.5994,-2.5882,-2.5882,-2.5882,-2.5882,0,-2.5765,-2.5801,-2.5778,-2.5801,-2.584,-2.5818,-2.5857,-2.5854,-2.5856,-2.5879,-2.5851,-2.5873,-2.5851,-2.5871,-2.586,-2.5898,-2.5902,-2.5898,-2.5895,-2.5902,-2.5902,-2.5909,-2.5904,-2.5885,-2.5884,-2.5884,-2.5883,0,-2.5859,-2.5845,-2.5883,-2.5878,-2.5878,-2.5907,-2.5904,-2.5925,-2.5917,-2.5946,-2.5951,-2.5939,-2.5961,-2.5947,-2.597,-2.5962,-2.6012,-2.6001,-2.6011,-2.6008,-2.6047,-2.6044,-2.6174,-2.6191,-2.6067,-2.6068,-2.6069,0,-2.5916,-2.5943,-2.5941,-2.5954,-2.5956,-2.5976,-2.5987,-2.5967,-2.598,-2.5987,-2.6008,-2.6028,-2.6042,-2.608,-2.6073,-2.6091,-2.6081,-2.6125,-2.6083,-2.6089,-2.6083,-2.6082,-2.6085,-2.6134,-2.6135,-2.6137,-2.6138,0,-2.602,-2.6012,-2.6028,-2.6043,-2.6056,-2.6067,-2.6075,-2.6087,-2.6067,-2.6083,-2.6105,-2.6116,-2.6139,-2.616,-2.6174,-2.6176,-2.6154,-2.6151,-2.6161,-2.6168,-2.6173,-2.6172,-2.6035,-2.6148,-2.6147,-2.6146,-2.6146,-2.6145,-2.6098,-2.612,-2.6123,-2.6142,-2.6146,-2.6155,-2.6175,-2.6169,-2.6187,-2.6204,-2.6191,-2.6218,-2.6223,-2.624,-2.6244,-2.6265,-2.6248,-2.6262,-2.6266,-2.627,-2.6276,-2.6169,-2.6268,-2.6268,-2.6267,-2.6267,-2.6267,0,-2.6202,-2.6202,-2.622,-2.6232,-2.6248,-2.6225,-2.6233,-2.6248,-2.6271,-2.6277,-2.6292,-2.6318,-2.6338,-2.6333,-2.6351,-2.6369,-2.636,-2.6375,-2.6374,-2.6375,-2.629,-2.628,-2.6382,-2.6382,-2.6382,-2.6382,-2.6382,-2.6382,-2.6257,-2.6294,-2.6287,-2.6326,-2.6325,-2.6351,-2.6358,-2.6366,-2.6371,-2.6401,-2.6417,-2.6413,-2.6415,-2.6433,-2.6451,-2.6449,-2.6458,-2.6477,-2.6472,-2.6392,-2.6381,-2.637,-2.6361,-2.6478,-2.6478,-2.6555,-2.6556,-2.6556]},{"header":{"parameterUnit":"m.s-1","parameterCategory":1,"la1":30.2991,"la2":30.254,"lo1":-89.0895,"lo2":-89.0444,"dy":0.0017,"dx":0.0017,"nx":28,"ny":28,"refTime":"2025-01-14T03:00:00:Z","depth":0,"parameterNumber":3,"parameterNumberName":"V-component_of_WINDS"},"data":[0,0,0,0,0,0,0,0,0,0,0,0,0,0,0,0,0,0,0,0,0,0,0,0,0,0,0,0,0,0,0,0,0,0,0,0,0,0,0,0,0,0,0,0,0,0,0,0,0,0,0,0,0,0,0,0,0,0,-2.8219,-2.8219,0,-2.8269,-2.827,-2.827,-2.8274,-2.8273,-2.8273,-2.8272,-2.8321,-2.8322,-2.8324,0,0,0,0,0,0,0,0,0,0,0,0,0,-2.8123,-2.8124,-2.8219,-2.8219,-2.822,-2.8269,-2.827,-2.827,-2.8274,-2.8273,-2.8273,-2.8272,-2.832,-2.8322,-2.8324,0,0,0,0,0,0,0,0,0,0,0,0,0,-2.8168,-2.8125,-2.8219,-2.8228,-2.8229,-2.8269,-2.827,-2.8271,-2.8274,-2.8273,-2.8272,-2.8272,-2.8319,-2.8322,-2.8325,-2.8358,0,0,-2.8333,-2.8334,0,0,0,0,0,0,0,0,-2.8165,-2.8171,-2.8226,-2.8227,-2.8229,-2.8264,-2.8254,-2.83,-2.8274,-2.8257,-2.8272,-2.8271,-2.8302,-2.8306,-2.8318,-2.836,-2.8362,-2.8333,-2.8335,-2.8336,-2.8337,0,0,0,0,0,0,0,-2.8162,-2.8169,-2.8239,-2.8227,-2.8228,-2.8228,-2.8234,-2.8262,-2.8284,-2.8258,-2.8259,-2.8265,-2.8303,-2.8315,-2.8319,-2.8363,-2.8333,-2.8336,-2.8337,-2.8338,-2.8436,-2.8437,0,0,0,0,0,0,-2.8158,-2.8167,-2.8237,-2.824,-2.8194,-2.8231,-2.8237,-2.8254,-2.8283,-2.8287,-2.8265,-2.8265,-2.8311,-2.8316,-2.832,-2.8362,-2.8336,-2.8339,-2.834,-2.8435,-2.8436,-2.8437,0,0,0,0,0,0,-2.8156,-2.8164,-2.8235,-2.8204,-2.8213,-2.8233,-2.8252,-2.8255,-2.8267,-2.8289,-2.8292,-2.8274,-2.831,-2.8317,-2.8349,-2.8364,-2.834,-2.8342,-2.8434,-2.8435,-2.8437,-2.8446,0,0,0,0,0,0,-2.8153,-2.8163,-2.8177,-2.8204,-2.8214,-2.8264,-2.8253,-2.8257,-2.8272,-2.8272,-2.8298,-2.8301,-2.831,-2.8345,-2.8352,-2.8367,-2.8344,-2.8433,-2.8434,-2.8436,-2.8444,-2.8447,-2.845,0,0,0,0,0,-2.8149,-2.8176,-2.8177,-2.8186,-2.8232,-2.8264,-2.827,-2.8281,-2.8273,-2.8287,-2.8301,-2.83,-2.8361,-2.8348,-2.8356,-2.8372,-2.8432,-2.8434,-2.8436,-2.8443,-2.8446,-2.845,0,0,0,0,0,0,-2.8149,-2.818,-2.8182,-2.8218,-2.8239,-2.8265,-2.8282,-2.8284,-2.8307,-2.8305,-2.8317,-2.8322,-2.8355,-2.8366,-2.8352,-2.8406,-2.8395,-2.8399,-2.8398,-2.8402,-2.8404,-2.8401,-2.8347,0,0,0,0,0,-2.8154,-2.8179,-2.8204,-2.8234,-2.8244,-2.8261,-2.8276,-2.8283,-2.8304,-2.8312,-2.8328,-2.8348,-2.8372,-2.8387,-2.841,-2.8445,-2.8451,-2.846,-2.8463,-2.8465,-2.8469,-2.8489,-2.8494,-2.8444,-2.8444,-2.8444,0,0,-2.8163,-2.8183,-2.8197,-2.8234,-2.8251,-2.8276,-2.8269,-2.8295,-2.8313,-2.8316,-2.8348,-2.836,-2.8383,-2.8418,-2.8433,-2.8428,-2.8484,-2.8468,-2.847,-2.8472,-2.8492,-2.8497,-2.8501,-2.8446,-2.8446,-2.8445,0,0,-2.8192,-2.821,-2.8237,-2.8254,-2.828,-2.8292,-2.8298,-2.8324,-2.8333,-2.8365,-2.8368,-2.8389,-2.843,-2.8446,-2.846,-2.8496,-2.8497,-2.8503,-2.8518,-2.8538,-2.8542,-2.8545,-2.8559,-2.8564,-2.8506,-2.8506,-2.8506,0,-2.82,-2.8239,-2.825,-2.8278,-2.8294,-2.8298,-2.8326,-2.8341,-2.8373,-2.8383,-2.8377,-2.8429,-2.8444,-2.8483,-2.8492,-2.8502,-2.851,-2.85,-2.854,-2.8544,-2.8548,-2.8561,-2.8566,-2.8507,-2.8506,-2.8506,-2.8506,0,-2.8248,-2.8274,-2.8293,-2.8325,-2.8343,-2.837,-2.8385,-2.8402,-2.8407,-2.8418,-2.8451,-2.847,-2.8497,-2.8507,-2.8511,-2.8546,-2.8542,-2.8538,-2.8528,-2.8553,-2.8566,-2.8571,-2.8508,-2.8507,-2.8507,-2.8507,0,0,-2.8279,-2.8318,-2.8325,-2.834,-2.8368,-2.8389,-2.8416,-2.8443,-2.8458,-2.8479,-2.8502,-2.8536,-2.8533,-2.8548,-2.8554,-2.8571,-2.86,-2.8565,-2.8566,-2.8572,-2.864,-2.8644,-2.865,-2.86,-2.8601,-2.8602,-2.8639,0,-2.8313,-2.8363,-2.8374,-2.8417,-2.8442,-2.8446,-2.8469,-2.8489,-2.8501,-2.8523,-2.8535,-2.856,-2.8553,-2.8562,-2.8579,-2.8593,-2.8614,-2.859,-2.8621,-2.8622,-2.8617,-2.8657,-2.8661,-2.8695,-2.8644,-2.8645,-2.8645,0,-2.8359,-2.8383,-2.8429,-2.8455,-2.8466,-2.8487,-2.8514,-2.8535,-2.8557,-2.8565,-2.8582,-2.8587,-2.8614,-2.8601,-2.8639,-2.8623,-2.8636,-2.8645,-2.8646,-2.8651,-2.8636,-2.8663,-2.8706,-2.8712,-2.8653,-2.8652,-2.8652,0,-2.8379,-2.8423,-2.8456,-2.8468,-2.85,-2.8515,-2.8528,-2.855,-2.8566,-2.8588,-2.8599,-2.8624,-2.8638,-2.8657,-2.8667,-2.8657,-2.8705,-2.8693,-2.8712,-2.8712,-2.8723,-2.8722,-2.877,-2.8729,-2.8729,-2.8729,-2.8729,0,-2.8416,-2.8444,-2.8466,-2.8486,-2.8517,-2.8529,-2.856,-2.8573,-2.8592,-2.8615,-2.8619,-2.8639,-2.8652,-2.8674,-2.8683,-2.8714,-2.8719,-2.8726,-2.8728,-2.8726,-2.8726,-2.8736,-2.8734,-2.873,-2.873,-2.873,-2.8729,0,-2.8445,-2.846,-2.8497,-2.8524,-2.8531,-2.8553,-2.8575,-2.8595,-2.8607,-2.8635,-2.8642,-2.866,-2.8687,-2.8699,-2.8732,-2.8737,-2.8773,-2.8773,-2.8766,-2.8767,-2.8786,-2.8784,-2.8843,-2.8851,-2.8804,-2.8804,-2.8805,0,-2.8468,-2.849,-2.852,-2.8536,-2.855,-2.8576,-2.8593,-2.8605,-2.8622,-2.865,-2.8666,-2.8693,-2.8716,-2.8758,-2.8773,-2.8798,-2.8799,-2.8818,-2.8803,-2.8801,-2.8801,-2.88,-2.8802,-2.8821,-2.8821,-2.8822,-2.8822,0,-2.8508,-2.8515,-2.854,-2.8568,-2.8589,-2.8611,-2.8632,-2.8645,-2.866,-2.8679,-2.8707,-2.8725,-2.8759,-2.8786,-2.8812,-2.8824,-2.8826,-2.8826,-2.8832,-2.8832,-2.8827,-2.8831,-2.8775,-2.8825,-2.8825,-2.8825,-2.8825,-2.8824,-2.8536,-2.8556,-2.8581,-2.8608,-2.8626,-2.8646,-2.8667,-2.8681,-2.8705,-2.8735,-2.874,-2.877,-2.8791,-2.8827,-2.8841,-2.8864,-2.8859,-2.8867,-2.887,-2.8872,-2.8874,-2.8823,-2.8868,-2.8868,-2.8868,-2.8868,-2.8868,0,-2.8578,-2.8594,-2.8619,-2.865,-2.8672,-2.8672,-2.8696,-2.8714,-2.8741,-2.8761,-2.8784,-2.8816,-2.8842,-2.886,-2.8886,-2.8901,-2.8903,-2.8908,-2.8907,-2.8911,-2.8876,-2.8868,-2.8906,-2.8906,-2.8906,-2.8906,-2.8906,-2.8906,-2.8602,-2.8637,-2.8646,-2.8689,-2.8704,-2.8735,-2.8749,-2.8767,-2.8784,-2.8821,-2.8843,-2.8855,-2.8874,-2.8902,-2.8925,-2.893,-2.894,-2.8945,-2.895,-2.8917,-2.8913,-2.8909,-2.8903,-2.8947,-2.8947,-2.8983,-2.8983,-2.8984]}]]